Location: Unspecified
(0.0000°N, 0.0000°E)
Time: 16:49:28
(UTC+00:00)

SKYMED 4 - Visible Passes

Search period start: 23 May 2017 00:00
Search period end: 02 June 2017 00:00
Orbit: 621 x 623 km, 97.9° (Epoch: 22 May)

Date Brightness Start Highest point End Pass type
(mag) Time Alt. Az. Time Alt. Az. Time Alt. Az.
24 May 7.6 18:16:21 10° NNW 18:20:02 27° WNW 18:23:43 10° SW visible
25 May 8.2 04:50:32 10° ESE 04:53:12 16° ENE 04:55:50 10° NE visible
25 May 8.3 18:35:26 10° NW 18:38:00 16° WNW 18:40:36 10° WSW visible
26 May 7.4 05:07:26 10° SE 05:11:10 28° ENE 05:14:53 10° NNE visible
27 May 6.1 05:24:56 10° SSE 05:29:09 51° ENE 05:33:21 10° N visible
30 May 8.4 04:45:09 10° ESE 04:47:12 13° ENE 04:49:13 10° NE visible
30 May 8.2 18:28:58 10° NNW 18:32:00 19° WNW 18:35:04 10° WSW visible
31 May 7.8 05:01:42 10° SE 05:05:10 23° ENE 05:08:36 10° NNE visible
31 May 8.9 18:49:21 10° WNW 18:49:58 10° WNW 18:50:35 10° W visible
01 Jun 6.6 05:19:03 10° SSE 05:23:08 42° ENE 05:27:13 10° N visible
